sat.trackr.live / text

‹ back to catalog

IRIDIUM 122

NORAD 42957 · 2017-061C

PAYLOAD ACTIVE UNKNOWN

§ Identity

Operator
Country
US
Launch date
2017-10-09
Launch site
AFWTR
Launch vehicle
Mass (kg)
RCS (m²)

Purposes: comms

External: N2YO · Heavens-Above · Gunter

§ Orbital elements

Epoch: 2026-09-20T02:06:42.735168Z

Period
100.40 min
Inclination
86.4022°
Eccentricity
0.0002238
Mean motion
14.34217972 rev/d
Perigee alt
776.1 km
Apogee alt
779.3 km
Semi-major
7,155.8 km
B*
4.4275e-5
RAAN
345.5329°
Arg perigee
92.8034°
Mean anomaly
267.3417°
Rev number
46,838

§ Raw data

IRIDIUM 1221 42957U 17061C   26263.08799462  .00000144  00000+0  44275-4 0  99902 42957  86.4022 345.5329 0002238  92.8034 267.3417 14.34217972468382

JSON: /api/v1/satellites/42957 · /tle

For live sub-satellite position, see the globe view (requires WebGL).

§ Visibility from observer

Set your observer location to see the next 7 days of passes ≥ 10°. The values pass through the URL so the page stays shareable.

No JS? Fill the form by hand. The geolocation button needs JavaScript.